This demonstration page uses our WeatherBlox Daily Observations layout. Learn more.

41.55636, -103.73856

Hourly Observations for July 4, 2019

Temp ( °F °C ) Dew Point ( °F °C ) Humidity (%) Winds ( mph kmh ) Pressure ( in mb ) Visibility ( mi km ) Precip ( " mm )
1:58 am 01:58 Mostly Clear 69 20.8 54 12.4 59 59 SSE 13 20 29.73 1007 10 16.0934 0 0
2:58 am 02:58 Mostly Cloudy 73 22.5 53 11.8 51 51 S 18 30 29.73 1007 10 16.0934 0 0
3:58 am 03:58 Mostly Cloudy 69 20.8 57 14 65 65 SSE 12 19 29.75 1008 10 16.0934 0 0
4:58 am 04:58 Mostly Cloudy 66 19.1 60 15.5 80 80 SSW 12 19 29.76 1008 10 16.0934 0 0
5:58 am 05:58 Mostly Cloudy with Light Thunderstorms 67 19.3 59 15 76 76 NE 10 17 29.75 1008 10 16.0934 0.04 1.016
6:58 am 06:58 Mostly Cloudy 66 18.9 57 13.8 72 72 ESE 8 13 29.75 1008 10 16.0934 0 0
7:58 am 07:58 Mostly Cloudy 64 17.8 56 13.5 76 76 ENE 8 13 29.79 1009 10 16.0934 0 0
8:58 am 08:58 Clear 60 15.3 56 13.6 90 90 Calm 29.8 1009 10 16.0934 0 0
9:58 am 09:58 Partly Cloudy 58 14.4 56 13.1 92 92 ENE 7 11 29.83 1010 10 16.0934 0 0
10:58 am 10:58 Mostly Cloudy with Fog 58 14.4 57 13.7 96 96 ENE 9 15 29.84 1010 1 1.60934 0 0
11:58 am 11:58 Mostly Cloudy with Patchy Fog 57 14.1 56 13.4 96 96 NE 6 9 29.88 1012 2.5 4.02335 0 0
12:58 pm 12:58 Mostly Cloudy 58 14.5 56 13.5 94 94 ENE 8 13 29.89 1012 7 11.26538 0 0
1:58 pm 13:58 Cloudy 59 15 57 13.8 93 93 E 15 24 29.91 1013 10 16.0934 0 0
2:58 pm 14:58 Cloudy 60 15.4 56 13.5 89 89 ESE 8 13 29.93 1014 10 16.0934 0 0
3:58 pm 15:58 Cloudy 61 16 56 13.4 85 85 SE 18 30 29.93 1014 10 16.0934 0 0
4:58 pm 16:58 Cloudy 60 15.8 58 14.4 91 91 SE 15 24 29.94 1014 7 11.26538 0 0
5:58 pm 17:58 Cloudy with Mist and Fog 61 16 59 15 94 94 ESE 8 13 29.96 1015 3 4.82802 0 0
6:58 pm 18:58 Cloudy 64 17.5 60 15.5 88 88 SE 13 20 29.93 1014 10 16.0934 0 0
7:58 pm 19:58 Cloudy 64 18 60 15.8 87 87 SE 13 20 29.94 1014 10 16.0934 0 0
8:58 pm 20:58 Mostly Cloudy 68 19.9 62 16.8 82 82 SSE 14 22 29.93 1014 10 16.0934 0 0
9:58 pm 21:58 Mostly Cloudy 71 21.4 64 17.6 79 79 SSE 13 20 29.92 1013 10 16.0934 0 0
10:58 pm 22:58 Mostly Cloudy 69 20.4 62 16.4 78 78 SE 15 24 29.92 1013 10 16.0934 0 0
11:58 pm 23:58 Mostly Cloudy 67 19.7 62 16.4 81 81 SE 10 17 29.93 1014 10 16.0934 0 0

Powered by AerisWeather